Regional Weather Roundup
Issued by NWS

Home | Current Version | Previous Version | Graphics & Text | Print | Product List | Glossary On
Versions: 1 2 3 4 5 6 7 8 9 10 11 12 13 14 15 16 17 18 19 20 21 22 23 24 25 26 27 28 29 30 31 32 33 34 35 36 37 38 39 40 41 42 43 44 45 46 47 48 49 50
000
ASUS43 KFSD 270910
RWRSD

WEATHER ROUNDUP FOR SOUTH DAKOTA
NATIONAL WEATHER SERVICE SIOUX FALLS SD
400 AM CDT SAT MAY 27 2017

NOTE: "FAIR" INDICATES FEW OR NO CLOUDS BELOW 12,000 FEET WITH NO
SIGNIFICANT WEATHER AND/OR OBSTRUCTIONS TO VISIBILITY.


SDZ001>005-009-010-012>017-271000-
NORTHWEST AND NORTH CENTRAL SOUTH DAKOTA

CITY           SKY/WX    TMP DP  RH WIND       PRES   REMARKS
BUFFALO          N/A     45  36  70 W12       29.88S
FAITH            N/A     53  45  74 SW12      29.94R
MOBRIDGE       CLOUDY    53  41  63 CALM      29.85F
$$

SDZ012>016-024>037-041>051-057-063-072>074-271000-
SOUTHWEST AND SOUTH CENTRAL SOUTH DAKOTA

CITY           SKY/WX    TMP DP  RH WIND       PRES   REMARKS
RAPID CTY ARPT CLOUDY    50  46  86 W7        29.97S
PIERRE         CLOUDY    60  43  53 W13       29.90S
CUSTER         CLOUDY    42  40  92 CALM      30.01S
ELLSWORTH AFB  MOCLDY    49  49 100 W7        29.96F
PHILIP         LGT RAIN  53  50  89 NW13      29.95R
PINE RIDGE     CLOUDY    50  49  96 CALM      29.99R
WINNER         CLOUDY    56  50  80 S7        29.91F
$$

SDZ004>011-016>023-039-040-271000-
NORTHEAST SOUTH DAKOTA

CITY           SKY/WX    TMP DP  RH WIND       PRES   REMARKS
ABERDEEN       CLOUDY    50  43  77 CALM      29.88S
WATERTOWN      MOCLDY    50  46  86 CALM      29.90R
BROOKINGS      CLOUDY    52  49  89 N3        29.91S
SISSETON         N/A     52  46  80 SW6       29.86S
$$

SDZ017-020-022-023-036>040-048>070-271000-
SOUTHEAST SOUTH DAKOTA

CITY           SKY/WX    TMP DP  RH WIND       PRES   REMARKS
SIOUX FALLS    CLOUDY    52  47  83 CALM      29.90S
HURON          CLOUDY    56  47  71 CALM      29.88F
CHAMBERLAIN    CLOUDY    57  48  72 S5        29.91S
MITCHELL       CLOUDY    56  51  84 NW5       29.91R
YANKTON        CLOUDY    55  52  89 CALM      29.90S
$$

ABBREVIATIONS USED IN REMARKS
   TC - TEMPERATURE IN CELSIUS
  WCI - WIND CHILL INDEX
   HX - HEAT INDEX
  VSB - VISIBILITY




USA.gov is the U.S. government's official web portal to all federal, state and local government web resources and services.